Theta_e
315 316 317 318 321 320 320 320 320 320 319 319 318 317 317 317 317 318 318 320 319 320 323 323 323 321 321 321 322 323 323 322 322 319 309 309 308 308 308 308 307 307 307
318 316 317 317 318 317 317 317 317 317 318 317 317 316 316 316 317 318 317 318 318 322 321 320 318 317 317 318 318 318 318 317 317 317 306 306 305 306 305 305 305 305 305
316 316 315 314 314 315 314 314 314 314 315 315 316 315 314 313 314 315 317 317 319 320 318 315 313 312 312 314 315 313 311 309 308 308 304 303 303 303 303 303 303 303 303
313 313 314 313 312 312 312 313 313 313 314 314 314 312 312 311 312 314 315 315 318 317 313 310 308 307 308 311 311 309 307 305 304 303 303 302 302 302 301 301 300 300 300
309 310 311 313 312 311 310 310 311 312 312 312 311 310 309 309 311 313 315 314 316 313 308 306 305 305 305 306 306 305 304 303 303 302 301 301 301 300 300 300 299 299 300
305 308 309 309 309 310 310 311 310 310 309 309 309 309 309 309 310 313 313 315 314 309 308 307 306 303 303 302 302 302 302 301 301 301 300 301 300 300 301 301 302 302 303
303 304 305 306 307 307 308 308 308 307 307 306 306 307 308 308 310 311 312 313 310 310 310 308 307 306 305 304 304 303 301 300 300 300 300 300 301 302 302 304 304 303 303
302 302 303 304 304 304 304 304 304 305 306 306 307 307 308 309 309 309 310 310 310 309 309 308 307 306 305 303 302 301 301 301 302 302 302 302 302 302 303 303 303 302 302
300 301 301 302 302 303 303 304 304 305 305 305 306 307 307 306 307 308 309 308 305 304 305 306 305 304 304 304 304 303 303 302 301 300 301 302 302 303 302 303 303 304 302
299 300 300 300 301 302 302 302 303 303 305 306 305 305 304 304 305 304 304 303 302 302 302 302 303 304 305 305 304 304 304 303 303 303 303 303 303 302 301 301 301 301 300
297 299 300 300 300 300 301 301 302 303 302 301 300 300 300 301 301 302 301 301 300 300 301 301 300 302 301 301 302 302 302 303 303 303 302 302 303 303 303 302 301 301 301
297 297 298 299 299 300 302 301 302 300 299 299 299 299 299 299 299 299 299 300 300 299 299 299 299 299 300 300 300 301 301 302 303 302 303 303 304 303 302 303 302 301 301
297 298 299 299 300 302 302 301 300 299 299 299 298 298 297 297 297 298 298 299 300 299 300 300 299 300 301 301 300 300 301 302 303 305 304 303 303 303 303 303 302 302 301
299 299 299 300 301 300 300 299 299 299 298 298 298 297 297 297 297 298 299 299 300 300 301 302 301 301 301 301 300 300 301 301 302 303 305 303 303 301 301 302 302 302 302
299 298 298 298 298 297 298 298 298 298 297 296 297 298 297 297 299 299 300 301 302 302 302 301 300 300 300 301 300 299 299 300 301 301 302 303 302 301 301 301 301 301 302
298 298 297 297 296 296 296 296 298 297 297 298 298 298 298 297 298 299 300 299 299 300 300 300 301 300 299 299 299 300 299 300 300 300 301 302 302 301 301 301 301 301 301
297 298 298 298 298 297 296 296 295 296 297 297 297 297 297 297 298 298 298 298 299 300 299 299 299 299 299 298 298 298 298 299 299 299 300 302 302 301 301 300 300 299 299
299 300 301 300 299 299 299 300 299 298 297 296 296 296 296 296 297 297 298 298 297 298 298 298 298 298 298 298 298 298 297 298 298 298 299 301 301 300 300 299 299 299 298
301 302 303 303 303 301 299 298 297 297 297 296 296 296 297 297 297 297 298 298 298 298 298 298 298 297 297 297 297 297 297 298 297 298 300 299 299 300 299 298 298 297 298
302 303 302 301 300 300 299 298 298 298 299 299 299 298 298 298 298 298 298 297 297 297 297 297 296 296 296 297 297 297 298 299 300 299 299 298 298 299 299 298 296 296 296
301 302 302 302 301 301 301 300 299 299 298 297 297 297 297 297 298 298 298 298 298 298 297 296 294 293 293 295 296 297 297 298 300 298 297 297 298 297 297 296 295 295 296
301 303 301 301 300 300 299 298 298 298 298 298 297 297 297 298 297 297 297 297 296 296 296 295 294 292 292 292 293 293 294 294 295 298 298 297 297 298 297 295 295 295 295
303 300 300 300 299 299 299 299 299 299 299 299 298 298 298 298 297 297 297 296 296 295 293 293 292 291 291 292 291 290 290 292 293 296 298 297 297 297 297 295 294 294 294
302 302 302 301 301 300 299 299 299 299 298 298 298 298 297 297 297 297 296 296 295 294 293 292 291 290 290 290 290 290 291 292 293 295 297 297 297 297 296 295 294 294 294
302 301 301 300 300 300 299 299 299 298 298 298 298 297 297 297 297 296 296 295 295 295 293 292 291 289 289 290 290 291 291 292 292 293 293 295 297 297 296 295 295 294 294
302 301 301 300 300 299 299 299 299 298 298 298 297 297 297 297 297 297 296 296 295 293 292 291 290 289 289 289 290 291 292 293 292 292 293 293 293 297 297 295 295 294 294
Wind_Speed
25 24 26 23 17 13 11 11 14 15 16 17 18 20 23 23 24 23 24 23 23 27 25 22 17 20 19 21 20 17 13 10 5 5 6 8 8 9 14 16 18 19 19
12 10 9 9 14 13 15 14 18 17 15 17 21 21 21 23 24 21 25 21 25 21 15 15 15 17 17 17 16 13 12 10 6 4 6 9 12 14 17 19 20 19 18
19 13 14 11 10 14 17 19 22 21 23 21 25 18 19 21 25 22 21 22 20 14 8 13 14 14 14 13 11 10 11 10 10 4 4 9 12 16 18 18 18 16 15
23 22 18 16 18 18 19 23 20 21 23 17 18 15 17 20 23 22 22 23 20 5 6 7 9 11 10 11 9 12 10 11 11 13 12 12 14 13 15 14 16 14 14
30 26 22 21 17 20 20 27 23 17 18 16 18 19 21 22 24 21 22 21 8 1 6 11 15 15 18 14 14 13 12 13 13 13 14 14 12 12 9 9 10 10 10
26 27 27 21 23 18 20 14 14 11 14 17 20 22 20 21 22 20 19 10 4 9 11 12 13 20 26 28 25 19 14 16 15 14 13 12 11 10 8 7 4 1 2
27 26 30 26 23 19 19 15 14 14 17 21 24 21 19 19 20 17 5 5 10 10 9 10 10 10 14 17 19 19 23 21 17 19 18 12 5 3 4 7 9 13 11
24 26 24 19 16 14 13 14 16 16 19 17 18 16 13 13 11 6 6 10 11 8 10 15 15 11 13 19 20 23 24 20 14 11 11 11 13 12 10 10 4 5 10
23 20 18 18 14 13 15 12 10 11 11 13 10 7 7 3 5 10 15 17 20 22 18 18 14 11 13 12 13 16 14 17 20 21 19 17 16 15 15 15 17 4 6
21 18 14 13 11 11 10 10 7 9 7 4 6 9 10 12 13 19 24 24 23 22 23 23 20 15 15 15 16 14 8 8 8 9 13 14 13 16 19 20 19 15 11
16 12 7 6 7 7 8 6 5 4 5 12 16 16 18 19 18 19 21 25 26 25 21 21 18 16 15 14 10 5 3 3 4 14 14 12 12 14 15 15 14 15 9
7 6 5 4 3 7 9 5 6 13 16 17 20 21 25 26 25 24 22 20 22 22 21 20 19 17 15 12 9 6 6 8 2 11 12 12 12 12 12 10 10 11 14
5 4 4 3 1 4 8 14 16 16 16 15 17 18 20 25 25 23 21 20 19 25 19 14 10 9 10 14 18 19 20 21 17 8 12 15 13 14 15 15 16 5 13
12 10 6 7 16 17 18 18 18 17 17 17 19 22 23 21 25 27 21 17 15 12 9 7 6 10 12 13 16 19 15 17 18 21 13 17 15 17 19 15 15 14 12
19 21 23 24 25 26 26 23 25 22 21 22 22 22 23 18 8 4 5 5 8 7 7 8 8 8 9 12 17 19 21 21 21 21 22 13 17 19 17 16 16 15 14
21 21 22 23 24 25 26 29 27 28 28 25 23 19 10 12 16 20 20 18 17 13 10 11 16 19 20 20 21 20 20 21 21 21 22 18 18 15 16 16 16 16 13
23 24 27 27 24 23 25 26 24 26 23 20 16 14 13 16 19 18 13 10 7 19 21 20 19 18 18 19 18 18 19 21 21 21 20 20 17 17 16 15 15 16 13
23 19 19 24 24 24 21 20 21 20 20 18 19 18 16 14 12 12 19 23 22 20 18 18 18 18 18 17 18 18 18 19 20 20 21 22 19 19 17 15 15 14 14
14 13 16 17 18 21 23 24 23 21 20 19 18 21 23 24 23 22 20 18 18 19 18 19 20 21 21 21 21 21 21 20 19 21 22 22 21 19 16 17 14 14 13
15 17 19 21 20 19 20 19 19 17 16 15 14 12 12 18 19 20 21 22 22 21 21 22 23 23 23 21 22 22 20 21 23 23 23 20 20 18 16 14 17 13 14
17 13 16 19 19 19 21 22 21 21 19 18 19 22 20 17 18 20 22 23 22 21 22 24 24 25 24 24 22 22 23 25 19 22 21 22 18 20 18 17 16 16 14
6 9 17 18 18 19 19 20 19 19 19 18 17 22 23 22 22 22 23 24 25 26 25 24 26 26 25 24 23 23 24 25 28 18 20 20 20 16 17 19 16 15 16
14 19 19 17 18 19 18 17 16 17 18 19 20 19 20 20 21 21 21 21 22 24 26 27 25 24 23 23 24 28 30 26 26 23 15 20 20 17 16 21 18 16 15
13 16 18 18 19 19 19 20 21 20 20 19 19 19 20 20 20 21 21 22 23 24 23 24 25 25 24 22 22 26 27 26 25 23 19 18 16 17 21 19 19 18 17
15 16 16 15 16 17 18 18 18 18 18 18 18 18 19 19 20 19 20 20 21 22 24 24 22 22 22 22 22 23 23 25 25 21 22 21 17 14 21 23 19 18 18
14 15 15 15 16 16 16 17 17 17 17 17 18 18 18 18 18 18 19 19 21 22 21 21 20 20 21 20 19 20 22 21 22 25 21 21 23 15 16 22 21 20 17
Wind_Direction
283 285 298 310 317 279 264 281 291 289 292 295 298 304 303 302 300 299 300 300 306 303 304 313 327 326 323 315 311 310 315 321 296 307 10 1 25 63 73 80 78 77 72
315 315 329 309 287 290 300 305 296 298 294 299 297 294 301 304 301 304 303 301 311 307 326 329 325 318 315 313 321 325 332 344 321 333 36 57 80 93 90 88 80 75 71
333 318 315 315 329 323 311 297 299 300 298 294 282 287 300 306 313 308 311 311 309 312 318 331 326 328 329 323 335 6 4 11 358 24 88 80 90 93 90 86 80 76 75
314 325 302 289 286 280 302 301 299 296 294 304 296 301 300 305 297 307 300 306 310 275 337 350 360 7 0 360 31 26 30 42 58 72 74 76 74 73 78 71 65 65 68
308 302 294 296 297 292 287 273 279 285 291 299 303 302 301 302 298 299 297 305 242 99 74 67 60 56 51 52 52 46 58 64 64 68 66 67 57 58 59 61 69 66 57
300 301 291 290 287 288 286 288 288 293 287 289 291 292 292 284 293 291 300 268 183 139 122 99 82 68 66 61 63 67 73 86 78 77 70 73 72 73 48 26 10 336 21
292 293 291 286 288 297 293 290 289 296 296 293 287 284 275 286 284 294 252 196 154 146 146 157 104 96 78 66 59 63 64 69 80 94 95 87 67 38 359 1 61 61 53
286 281 287 295 294 299 296 286 289 293 284 278 275 274 281 281 283 233 182 146 134 112 105 100 96 82 93 88 82 72 73 74 72 73 74 66 53 43 31 12 7 85 69
287 293 289 285 288 284 282 287 288 312 303 286 279 267 251 224 159 151 139 116 95 80 87 87 78 84 100 102 99 91 80 75 79 82 81 74 61 51 44 39 36 107 96
283 285 289 279 294 286 286 291 290 314 312 170 172 160 142 122 129 121 112 104 90 80 75 71 69 76 81 76 75 83 82 98 92 87 81 73 66 57 56 59 58 53 34
275 279 300 314 306 297 303 315 306 297 159 120 114 111 109 108 97 105 108 103 95 83 77 77 67 76 72 71 92 95 35 353 164 132 99 82 75 62 56 60 56 64 62
264 254 255 271 278 284 257 251 161 127 107 98 94 86 94 101 101 98 100 100 99 100 105 97 87 81 69 62 49 26 348 346 150 119 106 82 68 56 46 48 49 56 52
111 127 126 137 118 59 125 121 112 107 103 98 95 89 85 93 96 97 99 107 111 118 117 110 99 81 63 47 47 40 35 34 29 23 121 105 82 59 53 50 42 46 56
88 89 94 79 84 87 91 94 96 94 91 88 87 88 91 95 106 118 118 118 116 116 100 86 73 57 58 61 49 36 31 31 26 18 75 111 97 59 51 45 41 55 56
71 72 78 83 85 80 80 81 84 86 93 93 92 100 104 110 110 136 162 88 90 96 86 69 60 82 74 73 64 48 33 30 31 25 24 90 73 65 50 37 38 37 49
70 71 75 80 80 77 79 82 88 95 102 97 105 119 113 95 94 95 95 95 97 98 83 61 52 51 49 48 41 39 37 30 33 27 22 58 63 59 54 39 37 38 47
83 84 88 90 91 89 88 88 87 86 89 94 96 95 101 104 104 101 94 77 37 63 59 57 52 50 60 53 50 47 32 40 37 32 24 48 51 58 47 48 44 34 22
98 103 98 96 101 103 102 97 88 88 88 84 88 86 82 77 71 65 67 73 70 68 63 57 56 57 54 57 57 48 43 43 44 36 32 45 49 45 36 47 38 35 27
88 88 108 115 106 96 93 96 97 94 93 91 83 82 81 76 74 74 75 73 68 64 61 60 56 53 52 51 49 45 39 42 56 41 53 42 38 38 42 36 30 32 27
90 98 99 106 110 109 108 110 116 116 106 95 88 94 88 75 72 70 67 66 63 60 58 54 49 46 42 51 49 46 35 27 63 51 44 41 36 36 36 40 35 27 31
91 81 87 82 82 81 74 74 76 77 78 76 74 82 90 86 77 69 64 59 58 56 58 59 55 50 43 38 43 38 34 27 53 57 45 41 38 36 37 35 38 33 39
88 81 98 97 101 100 100 101 102 101 100 97 87 80 77 74 71 67 63 60 56 52 51 56 56 54 50 46 42 35 33 20 17 30 51 41 34 35 38 38 40 35 35
93 91 96 102 111 112 109 108 104 97 90 85 82 80 77 76 74 70 68 67 68 66 59 56 55 52 51 52 46 40 36 29 22 25 52 48 40 41 36 39 41 37 34
90 83 80 80 83 82 83 82 81 86 87 85 85 84 82 79 75 73 71 68 65 63 62 60 57 54 56 51 49 43 37 34 33 37 39 48 48 47 42 44 45 43 40
96 98 98 98 95 92 88 88 87 87 88 88 88 86 83 79 77 75 73 70 69 67 64 61 57 51 54 57 49 42 40 42 39 41 39 38 46 50 42 49 46 47 48
94 90 90 91 92 93 92 92 91 89 88 86 84 83 82 80 78 75 74 75 73 69 63 62 59 54 54 53 44 40 37 38 47 40 38 41 36 57 59 45 44 46 50